Weather in Oswiecim

Poland     50°02′03″N   19°15′37″E
temp.,
°C
wind,
m/s
gust,
m/s
humid.,
%
clouds,
%
prec.,
mm/h
press.,
hPa
HPBL,
m
7 may, fri
fri723:00+7sse1378100 0.0 100876
02:00+6ene2392100 1.1 1007104
05:00+6se2390100 0.9 1005113
08:00+9wsw51183100 1.0 10051145
11:00+11wsw81274100 0.3 10061228
14:00+12w71164100 0.6 10071573
17:00+9wnw7107998 0.6 10091029
20:00+6wnw5107799 0.6 1013669
8 may, sat
sat823:00+5w5107998 0.1 1016561
02:00+2wsw498671 0.1 1018382
05:00+4w5107730 0.0 1019660
08:00+6w58708 0.0 1021822
11:00+9w5657100 0.1 10211628
14:00+11w4644100 0.2 10202128
17:00+12nw345052 0.1 10201270
20:00+8wnw016322 0.1 102110
9 may, sun
sun923:00+6sse2271100 0.0 102230
02:00+5sse226690 0.0 102235
05:00+4se237096 0.0 102238
08:00+10se235824 0.0 1021211
11:00+16ssw35445 0.0 10201335
14:00+19sw45395 0.0 10181710
17:00+20sw35445 0.0 10171350
20:00+14sse11665 0.0 101712
10 may, mon
mon1023:00+10sse22715 0.0 101717
02:00+8sse22755 0.0 101724
05:00+7se23730 0.0 101644
08:00+13se34620 0.0 1015193
11:00+20s34420 0.0 1015876
14:00+24s143798 0.0 10141637
17:00+24sw34486 0.0 1014871
20:00+17sse22700 0.0 101534
11 may, tue
tue1123:00+14se35720 0.0 101571
02:00+12se35790 0.0 101482
05:00+11ese37830 0.0 1012123
08:00+17se46661 0.0 1012209
11:00+23sse23445 0.0 1012818
14:00+27se353786 0.0 10101575
17:00+26sse3548100 0.0 1009994
20:00+20ese3372100 0.0 100854